Location: Unspecified
(43.4354°N, 0.0000°E)
Time: 02:27:58
(UTC+00:00)

Transit 2A - Pass Details

Date: 17 June 2019
Orbit: 594 x 965 km, 66.7° (Epoch: 16 July)

Event Time Altitude Azimuth Distance (km) Brightness Sun altitude
Rises 08:33:25 0° 334° (NNW) 3,526 9.2 43.2°
Reaches altitude 10° 08:36:46 10° 351° (N) 2,519 8.6 43.8°
Maximum altitude 08:40:54 20° 37° (NE) 1,843 8.5 44.5°
Drops below altitude 10° 08:44:45 10° 83° (E) 2,332 9.5 45.2°
Sets 08:47:42 0° 101° (E) 3,181 9.9 45.7°
